Back to catalog

STARLINK-30433

AliveCommunicationsVLEO
NORAD 57878·PAYLOAD·🇺🇸 United States

Launched Sep 16, 2023 from Cape Canaveral Space Force Station

Loading…

Next Passes (next 24 hours)

TLE

FreshSource: CelesTrak SupGP

Epoch: Sep 14, 2026, 20:58 UTC

1 57878C 23144Q   26257.87409722 -.00014587  00000+0 -52838-3 0  2572
2 57878  43.0006 296.4417 0001477 268.0382 134.2503 15.27583860    15

Track STARLINK-30433 in real time with AllMySat

Download on the App Store